Regional Weather Roundup
Issued by NWS

Home | Current Version | Previous Version | Graphics & Text | Print | Product List | Glossary On
Versions: 1 2 3 4 5 6 7 8 9 10 11 12 13 14 15 16 17 18 19 20 21 22 23 24 25 26 27 28 29 30 31 32 33 34 35 36 37 38 39 40 41 42 43 44 45 46 47 48 49 50
024
ASUS44 KMEG 242110
RWRTN
TENNESSEE HOURLY STATE WEATHER ROUNDUP
NATIONAL WEATHER SERVICE MEMPHIS TN
400 PM CDT WED AUG 24 2016

TNZ002-004-019-021-049-052-054-088>092-242200-
WEST TENNESSEE

CITY           SKY/WX    TMP DP  RH WIND       PRES   REMARKS
MEMPHIS INTL   MOSUNNY   94  74  52 S7        30.10F HX 104
NWS MEMPHIS      N/A     94 N/A N/A MISG        N/A
JACKSON        SUNNY     93  74  53 SW5       30.11F HX 103
DYERSBURG      PTSUNNY   93  73  52 MISG      30.09F HX 102
UNION CITY     SUNNY     91  77  62 SW9       30.08F HX 105
PARIS          MOSUNNY   88  75  66 SW10      30.12S HX  97
LEXINGTON      MOSUNNY   91  75  59 S8          N/A  HX 102
$$

TNZ008-025-027-028-033-062-065-066-242200-
NORTH MIDDLE TENNESSEE

CITY           SKY/WX    TMP DP  RH WIND       PRES   REMARKS
NASHVILLE      CLOUDY    90  71  53 SW6       30.14F HX  96
CLARKSVILLE    MOSUNNY   89  73  59 SW14      30.11F HX  97
SMYRNA         MOSUNNY   90  70  51 MISG      30.16F HX  95
COOKEVILLE     SUNNY     90  73  58 CALM      30.17F HX  98
CROSSVILLE     MOSUNNY   83  68  60 CALM      30.23F
$$

TNZ061-075-076-078-094-096-097-242200-
SOUTH MIDDLE TENNESSEE

CITY           SKY/WX    TMP DP  RH WIND       PRES   REMARKS
FAYETTEVILLE   SUNNY     90  70  51 SW7       30.17F HX  95
TULLAHOMA      MOSUNNY   90  68  48 W5        30.19F HX  93
WINCHESTER     PTSUNNY   90  72  55 CALM      30.17F HX  96
MCMINNVILLE    SUNNY     91  73  55 VRB6      30.17F HX 100
COLUMBIA       MOSUNNY   91  75  59 S6        30.13F HX 102
SHELBYVILLE    SUNNY     93  73  52 SW5       30.16F HX 102
$$

TNZ017-018-042-046-047-242200-
NORTHEAST TENNESSEE

CITY           SKY/WX    TMP DP  RH WIND       PRES   REMARKS
TRI CITIES     PTSUNNY   83  67  58 VRB3      30.23F
ELIZABETHTON   SUNNY     82  68  61 VRB3      30.23F
$$

TNZ012-013-036-069-073-074-242200-
CENTRAL EAST TENNESSEE

CITY           SKY/WX    TMP DP  RH WIND       PRES   REMARKS
KNOXVILLE      PTSUNNY   89  67  47 SW9       30.17F HX  92
OAK RIDGE      MOSUNNY   89  68  49 VRB3      30.19F HX  93
GATLINBURG     SUNNY     88  70  55 VRB3      30.18F HX  92
MORRISTOWN     MOSUNNY   88  70  55 VRB5      30.19F HX  92
$$

TNZ083-085-099-242200-
SOUTHEAST TENNESSEE

CITY           SKY/WX    TMP DP  RH WIND       PRES   REMARKS
CHATTANOOGA    CLOUDY    90  70  51 VRB6      30.16F HX  95
$$

SKY/WX REPORTED AS FAIR MEANS FEW OR NO CLOUDS BELOW
12 THOUSAND FEET.





USA.gov is the U.S. government's official web portal to all federal, state and local government web resources and services.